Location: ??
(34.7873°N, 135.8804°E)
Time: 00:49:31
(UTC+00:00)

Daily predictions for brighter satellites

Satellite Brightness Start Highest point End
(mag) Time Altitude Azimuth Time Altitude Azimuth Time Altitude Azimuth
Cosmos 2227 4.3 09:13:01 10° SSW 09:18:46 89° WNW 09:24:32 10° NNE
Cosmos 1782 Rocket 3.9 09:15:27 10° SSE 09:19:36 43° E 09:23:48 10° NNE
Cosmos 1908 Rocket 3.6 09:17:21 10° S 09:21:41 88° WNW 09:26:03 10° N
BREEZE-M DEB (TANK) 3.1 09:19:45 10° SSW 09:22:05 38° ESE 09:26:43 10° NE
Cosmos 1842 3.8 09:23:54 10° NNE 09:27:30 36° E 09:31:05 10° SSE
Cosmos 1943 3.8 09:24:06 10° N 09:29:17 36° ENE 09:34:27 10° SE
Cosmos 1898 Rocket 3.8 09:24:59 10° SSW 09:30:08 74° WNW 09:35:19 10° NNE
NOSS 2-2 (E) 3.0 09:28:07 10° SSW 09:31:38 88° WNW 09:35:15 10° NNE
ISS -3.4 09:29:49 10° SW 09:33:09 69° NW 09:36:32 10° NE
CSL-04 Debris 4.4 09:30:55 10° SE 09:36:03 48° ENE 09:41:13 10° N
ATLAS 2AS CENTAUR R/B 4.4 09:33:35 10° ESE 09:36:20 12° ESE 09:39:05 10° E
NOSS 2-2 (D) 2.9 09:36:41 10° SSW 09:40:14 86° ESE 09:43:49 10° NNE
Cosmos 1707 4.2 09:38:03 10° NNE 09:40:44 18° ENE 09:42:35 13° ESE
Cosmos 1437 3.1 09:38:35 10° N 09:41:23 36° E 09:44:11 10° SSE
Cosmos 1464 Rocket 4.4 09:38:45 10° SSE 09:44:20 39° E 09:49:57 10° NNE
CSL-04 Rocket 3.8 09:39:42 10° SSE 09:44:55 55° ENE 09:50:15 10° N
Meteor 1-21 4.3 09:40:03 10° N 09:45:32 56° E 09:51:00 10° SSE
Cosmos 2084 Rocket 4.1 09:41:56 10° NNW 09:46:10 40° NE 09:49:40 14° ESE
Cosmos 372 Rocket 4.2 09:41:17 10° S 09:46:19 49° ESE 09:51:21 10° NNE
Cosmos 1975 Rocket 3.2 09:45:12 10° N 09:49:25 50° E 09:53:36 10° SSE
Cosmos 1603 3.7 09:43:53 10° NNW 09:49:30 65° ENE 09:55:03 10° SSE
Tsikada Rocket 4.5 09:43:50 10° NNW 09:49:55 64° W 09:55:59 10° S
Cosmos 807 4.2 09:47:07 10° S 09:50:03 82° W 09:53:23 10° N
Cosmos 1937 Rocket 4.3 09:53:41 10° SSW 09:58:50 55° WNW 10:03:58 10° N
Sich 1 Rocket 3.5 09:56:07 10° S 10:00:34 78° E 10:05:05 10° N
MOS 1 Rocket 3.0 09:56:50 10° NNE 10:01:14 74° E 10:05:29 10° S
HJ-1C 3.2 09:58:10 10° SSE 10:01:25 68° ENE 10:04:42 10° N
Cosmos 2112 Rocket 4.3 09:57:25 10° NNW 10:02:36 71° WSW 10:07:48 10° S
Cosmos 1125 Rocket 4.4 09:58:27 10° SSE 10:02:48 26° E 10:07:10 10° NE
USA 186 3.3 10:03:58 19° NE 10:03:58 19° NE 10:05:43 10° NNE
Cosmos 1680 Rocket 4.3 10:01:07 10° NNW 10:06:12 54° WSW 10:11:17 10° S
Cosmos 1891 Rocket 4.4 10:05:40 10° S 10:11:49 73° E 10:17:53 10° N
SL-08 RB Rocket 4.0 10:15:55 25° SE 10:18:13 47° ENE 10:22:36 10° N
Okean 2 Rocket 3.0 10:15:11 10° S 10:19:41 79° E 10:24:11 10° N
H-2A R/B 2.1 10:17:54 10° S 10:22:48 77° WSW 10:27:49 10° NNW
Cosmos 1174 4.3 10:21:29 10° SSW 10:25:58 88° WNW 10:31:45 10° NNE
Cosmos 1300 Rocket 3.6 10:25:30 10° S 10:29:52 80° W 10:34:18 10° N
Milstar 3 Cent rocket 3.0 10:25:46 10° SW 10:31:40 31° S 10:32:39 29° SSE
ARGOS 3.1 10:26:31 10° SSE 10:31:52 86° WSW 10:37:16 10° NNW
In-Cosmos 22 4.0 10:28:36 10° N 10:33:52 62° E 10:36:11 33° SSE
Cosmos 2034 Rocket 3.9 10:35:10 10° S 10:41:32 84° E 10:47:55 10° N
CZ-2C R/B 2.6 10:36:04 10° NNE 10:41:39 86° ESE 10:47:16 10° SSW
Nadezhda 4 Rocket 3.9 10:37:54 10° N 10:43:57 62° E 10:46:12 38° SE
Cosmos 1844 3.5 10:41:59 10° SSW 10:47:42 76° ESE 10:53:22 10° NNE
CZ-2C R/B 1.6 10:45:30 10° W 10:48:12 50° W 10:48:12 50° W
MOS 1 4.2 10:47:43 45° SE 10:49:29 71° ENE 10:55:10 10° N
USA 234 3.2 10:43:13 10° NE 10:49:46 84° NW 10:56:20 10° SW
DELTA 2 R/B (1) 3.5 10:44:53 10° WNW 10:50:26 77° SSW 10:51:27 59° SE
Ariane Rocket 2.9 10:51:52 48° SSE 10:53:20 90° WSW 10:58:26 10° NNW
Cosmos 1536 Rocket 3.6 10:49:05 10° N 10:53:04 67° NNE 10:53:04 67° NNE
Exosat Rocket 3.6 10:48:55 10° SSW 10:55:13 85° ESE 11:00:18 10° NNE
Cosmos 1844 Rocket 2.9 10:52:05 10° SSW 10:57:37 69° WNW 11:03:11 10° NNE
Longmarch 3A Rocket 3.8 10:56:00 10° SW 10:56:42 17° SW 10:56:42 17° SW
Cosmos 1025 Rocket 3.6 11:00:31 10° NNW 11:04:48 55° W 11:05:24 50° SW
SPOT 3 Rocket 4.4 11:09:37 39° NNE 11:09:37 39° NNE 11:13:03 10° N
ISS -0.6 11:09:30 10° NW 11:10:30 11° NNW 11:11:11 11° NNW
Cosmos 1634 Rocket 4.3 11:15:59 51° NE 11:15:59 51° NE 11:20:40 10° NNE
MetOp-A 4.2 11:16:08 67° SW 11:16:34 71° WSW 11:21:55 10° NNW
Cosmos 2285 Rocket 4.1 11:14:48 10° SSW 11:21:04 71° WNW 11:27:24 10° NNE
Cosmos 1867 4.2 11:20:08 10° NW 11:25:24 50° WSW 11:25:33 49° WSW
ATLAS 2AS CENTAUR R/B 2.8 11:18:17 10° SSW 11:26:07 76° ESE 11:34:04 10° NE
Resurs 01 Rocket 4.0 11:35:01 17° N 11:35:01 17° N 11:36:05 10° N
Cosmos 1092 Rocket 4.3 11:36:55 10° NNW 11:42:16 63° NW 11:42:16 63° NW
CENTAUR R/B 3.3 11:35:18 10° NNW 11:43:13 61° NE 11:43:13 61° NE
ATLAS 3B R/B 4.4 11:44:23 10° N 11:47:58 21° NNE 11:47:58 21° NNE
